Zurück zum Katalog

THOR ABLESTAR R/B

AktivLEO
NORAD 204·ROCKET BODY·🇺🇸 United States

Gestartet Nov 15, 1961 von Cape Canaveral Space Force Station

Loading…

Nächste Überflüge (nächste 24 Stunden)

TLE

AktuellSource: Space-Track

Epoche: Sep 14, 2026, 15:04 UTC

1 00204U 61031C   26257.62795221  .00000066  00000-0  50133-4 0  9991
2 00204  32.4440 328.7757 0098807 272.9356  85.9962 13.65087260235254

Verfolge THOR ABLESTAR R/B in Echtzeit mit AllMySat

Download on the App Store